Weather History for Ely, MN

Change the Weather History Date:

Tuesday, October 16, 2012

  Actual Average Record
Temperature  
Mean Temperature 55 °F -  
Max Temperature 66 °F 49 °F 66 °F (2012)
Min Temperature 44 °F 32 °F 15 °F (2002)
Degree Days  
Heating Degree Days 10    
Growing Degree Days 5 (Base 50)    
Moisture  
Dew Point 42 °F    
Average Humidity 68    
Maximum Humidity 93    
Minimum Humidity 46    
Precipitation  
Precipitation 0.00 in - - ()
Sea Level Pressure  
Sea Level Pressure 29.50 in    
Wind  
Wind Speed 8 mph (South)    
Max Wind Speed 12 mph    
Max Gust Speed 17 mph    
Visibility 10 miles    
Events      
Averages and records for this station are not official NWS values.
T = Trace of Precipitation, MM = Missing Value Source: NWS Daily Summary

Daily Weather History Graph

Daily Weather History Graph

Search for Another Location

Airport:

Trip Planner

Search our weather history database for the weather conditions in past years. The results will help you decide how hot, cold, wet, or windy it might be!

Date:

Astronomy

Oct. 16, 2012 Rise Set
Actual Time 7:28 AM CDT 6:16 PM CDT
Civil Twilight 6:57 AM CDT 6:47 PM CDT
Nautical Twilight 6:21 AM CDT 7:23 PM CDT
Astronomical Twilight 5:45 AM CDT 7:58 PM CDT
Moon 9:01 AM CDT (10/16) 6:50 PM CDT (10/16)
Length of Visible Light 11h 50m
Length of Day
10h 47m
New Moon, 2% of the Moon is Illuminated
Oct 16
New Moon
Oct 21
First Quarter
Oct 29
Full
Nov 6
Last Quarter
Nov 13
New

Hourly Weather History & Observations

Time (CDT) Temp. Windchill Dew Point Humidity Pressure Visibility Wind Dir Wind Speed Gust Speed Precip Events Conditions
12:13 AM 44.6 °F 39.2 °F 35.6 °F 71% 29.71 in 10.0 mi SSE 10.4 mph - N/A   Overcast
12:33 AM 44.6 °F 41.4 °F 35.6 °F 71% 29.71 in 10.0 mi SSE 5.8 mph - N/A   Overcast
12:53 AM 44.6 °F 40.2 °F 35.6 °F 71% 29.70 in 10.0 mi SSE 8.1 mph - N/A   Overcast
1:13 AM 44.6 °F 40.2 °F 35.6 °F 71% 29.68 in 10.0 mi SSE 8.1 mph - N/A   Overcast
1:33 AM 44.6 °F 39.7 °F 33.8 °F 66% 29.67 in 10.0 mi SSE 9.2 mph - N/A   Mostly Cloudy
1:53 AM 44.6 °F 39.2 °F 33.8 °F 66% 29.66 in 10.0 mi SSE 10.4 mph - N/A   Mostly Cloudy
2:13 AM 46.4 °F 41.1 °F 33.8 °F 62% 29.65 in 10.0 mi SSE 11.5 mph - N/A   Mostly Cloudy
2:33 AM 46.4 °F 41.5 °F 33.8 °F 62% 29.64 in 10.0 mi SSE 10.4 mph - N/A   Scattered Clouds
2:53 AM 46.4 °F 41.5 °F 33.8 °F 62% 29.62 in 10.0 mi SSE 10.4 mph 17.3 mph N/A   Clear
3:13 AM 46.4 °F 42.4 °F 35.6 °F 66% 29.61 in 10.0 mi South 8.1 mph - N/A   Scattered Clouds
3:32 AM 46.4 °F 41.5 °F 35.6 °F 66% 29.61 in 10.0 mi South 10.4 mph - N/A   Drizzle
3:53 AM 46.4 °F 41.9 °F 37.4 °F 71% 29.61 in 10.0 mi South 9.2 mph - N/A   Light Drizzle
4:12 AM 46.4 °F 41.1 °F 37.4 °F 71% 29.60 in 10.0 mi SSE 11.5 mph 17.3 mph N/A   Overcast
4:33 AM 46.4 °F 41.9 °F 37.4 °F 71% 29.59 in 10.0 mi South 9.2 mph - N/A   Light Drizzle
4:53 AM 46.4 °F 41.5 °F 37.4 °F 71% 29.59 in 10.0 mi South 10.4 mph - N/A   Overcast
5:12 AM 46.4 °F 41.5 °F 37.4 °F 71% 29.58 in 10.0 mi South 10.4 mph - N/A   Overcast
5:33 AM 44.6 °F 39.2 °F 39.2 °F 81% 29.58 in 10.0 mi South 10.4 mph - N/A   Drizzle
5:53 AM 44.6 °F 40.2 °F 39.2 °F 81% 29.57 in 10.0 mi South 8.1 mph - N/A   Scattered Clouds
6:12 AM 46.4 °F 42.4 °F 39.2 °F 76% 29.56 in 10.0 mi South 8.1 mph - N/A   Clear
6:33 AM 46.4 °F 42.9 °F 39.2 °F 76% 29.56 in 10.0 mi South 6.9 mph - N/A   Scattered Clouds
6:53 AM 46.4 °F 41.9 °F 39.2 °F 76% 29.55 in 10.0 mi South 9.2 mph - N/A   Scattered Clouds
7:12 AM 46.4 °F 41.9 °F 39.2 °F 76% 29.55 in 10.0 mi South 9.2 mph - N/A   Clear
7:33 AM 46.4 °F 42.4 °F 41.0 °F 81% 29.55 in 10.0 mi South 8.1 mph - N/A   Clear
7:53 AM 46.4 °F 42.9 °F 41.0 °F 81% 29.54 in 10.0 mi South 6.9 mph - N/A   Clear
8:12 AM 46.4 °F 43.5 °F 41.0 °F 81% 29.54 in 10.0 mi South 5.8 mph - N/A   Clear
8:33 AM 46.4 °F 43.5 °F 41.0 °F 81% 29.54 in 10.0 mi SSW 5.8 mph - N/A   Clear
8:53 AM 46.4 °F 44.3 °F 42.8 °F 87% 29.54 in 10.0 mi SSW 4.6 mph - N/A   Clear
9:12 AM 48.2 °F - 42.8 °F 82% 29.54 in 10.0 mi SSW 5.8 mph - N/A   Mostly Cloudy
9:33 AM 48.2 °F - 42.8 °F 82% 29.53 in 10.0 mi SSW 6.9 mph - N/A   Scattered Clouds
9:53 AM 48.2 °F - 42.8 °F 82% 29.53 in 10.0 mi South 9.2 mph - N/A   Clear
10:13 AM 50.0 °F - 42.8 °F 76% 29.52 in 10.0 mi SSW 6.9 mph - N/A   Clear
10:33 AM 53.6 °F - 44.6 °F 72% 29.51 in 10.0 mi SW 5.8 mph - N/A   Clear
10:53 AM 53.6 °F - 44.6 °F 72% 29.51 in 10.0 mi SW 9.2 mph - N/A   Clear
11:13 AM 55.4 °F - 44.6 °F 67% 29.50 in 10.0 mi SW 8.1 mph - N/A   Clear
11:33 AM 57.2 °F - 44.6 °F 63% 29.50 in 10.0 mi SW 8.1 mph - N/A   Clear
11:53 AM 57.2 °F - 44.6 °F 63% 29.49 in 10.0 mi SSW 8.1 mph - N/A   Clear
12:13 PM 60.8 °F - 44.6 °F 55% 29.48 in 10.0 mi SSW 10.4 mph - N/A   Clear
12:33 PM 60.8 °F - 44.6 °F 55% 29.47 in 10.0 mi SSW 8.1 mph - N/A   Clear
12:53 PM 62.6 °F - 44.6 °F 52% 29.46 in 10.0 mi SSW 9.2 mph - N/A   Clear
1:13 PM 62.6 °F - 44.6 °F 52% 29.46 in 10.0 mi SW 8.1 mph - N/A   Clear
1:31 PM 62.6 °F - 44.6 °F 52% 29.45 in 10.0 mi SW 5.8 mph - N/A   Clear
1:53 PM 64.4 °F - 44.6 °F 49% 29.43 in 10.0 mi SW 5.8 mph - N/A   Clear
2:12 PM 64.4 °F - 44.6 °F 49% 29.43 in 10.0 mi WSW 6.9 mph - N/A   Clear
2:33 PM 64.4 °F - 44.6 °F 49% 29.42 in 10.0 mi WSW 8.1 mph - N/A   Clear
2:53 PM 66.2 °F - 44.6 °F 46% 29.41 in 10.0 mi West 8.1 mph - N/A   Clear
3:12 PM 66.2 °F - 44.6 °F 46% 29.41 in 10.0 mi SW 5.8 mph - N/A   Clear
3:33 PM 66.2 °F - 44.6 °F 46% 29.40 in 10.0 mi SW 8.1 mph - N/A   Clear
3:53 PM 66.2 °F - 44.6 °F 46% 29.40 in 10.0 mi South 3.5 mph - N/A   Clear
4:12 PM 66.2 °F - 44.6 °F 46% 29.40 in 10.0 mi WSW 8.1 mph - N/A   Clear
4:33 PM 66.2 °F - 44.6 °F 46% 29.40 in 10.0 mi SSW 5.8 mph - N/A   Clear
4:53 PM 66.2 °F - 44.6 °F 46% 29.40 in 10.0 mi SW 4.6 mph - N/A   Clear
5:12 PM 66.2 °F - 44.6 °F 46% 29.40 in 10.0 mi Calm Calm - N/A   Clear
5:33 PM 64.4 °F - 44.6 °F 49% 29.40 in 10.0 mi Calm Calm - N/A   Clear
5:52 PM 62.6 °F - 44.6 °F 52% 29.40 in 10.0 mi South 3.5 mph - N/A   Clear
6:13 PM 60.8 °F - 44.6 °F 55% 29.39 in 10.0 mi South 4.6 mph - N/A   Clear
6:33 PM 59.0 °F - 44.6 °F 59% 29.40 in 10.0 mi South 4.6 mph - N/A   Clear
6:52 PM 57.2 °F - 44.6 °F 63% 29.40 in 10.0 mi South 3.5 mph - N/A   Clear
7:13 PM 57.2 °F - 46.4 °F 67% 29.40 in 10.0 mi South 4.6 mph - N/A   Clear
7:33 PM 57.2 °F - 46.4 °F 67% 29.40 in 10.0 mi SSE 4.6 mph - N/A   Clear
7:52 PM 55.4 °F - 46.4 °F 72% 29.40 in 10.0 mi South 3.5 mph - N/A   Clear
8:13 PM 55.4 °F - 46.4 °F 72% 29.41 in 10.0 mi Calm Calm - N/A   Clear
8:33 PM 53.6 °F - 44.6 °F 72% 29.41 in 10.0 mi Calm Calm - N/A   Clear
8:52 PM 50.0 °F - 44.6 °F 82% 29.41 in 10.0 mi Calm Calm - N/A   Clear
9:13 PM 48.2 °F - 44.6 °F 87% 29.41 in 10.0 mi SE 3.5 mph - N/A   Clear
9:33 PM 48.2 °F - 44.6 °F 87% 29.42 in 10.0 mi SSE 4.6 mph - N/A   Clear
9:52 PM 50.0 °F - 44.6 °F 82% 29.41 in 10.0 mi SSE 3.5 mph - N/A   Clear
10:13 PM 48.2 °F - 44.6 °F 87% 29.41 in 10.0 mi SSE 3.5 mph - N/A   Clear
10:33 PM 48.2 °F - 44.6 °F 87% 29.41 in 10.0 mi SSE 4.6 mph - N/A   Clear
10:52 PM 48.2 °F - 44.6 °F 87% 29.41 in 10.0 mi South 3.5 mph - N/A   Clear
11:13 PM 48.2 °F - 44.6 °F 87% 29.41 in 10.0 mi South 3.5 mph - N/A   Clear
11:32 PM 46.4 °F - 42.8 °F 87% 29.40 in 10.0 mi Calm Calm - N/A   Clear
11:53 PM 44.6 °F 43.1 °F 42.8 °F 93% 29.39 in 10.0 mi SE 3.5 mph - N/A   Clear